Terminal Aerodrome Forecast
Issued by NWS Denver/Boulder, CO

Home | Current Version | Previous Version | Text Only | Print | Product List | Glossary On
Versions: 1 2 3 4 5 6 7 8 9 10 11 12 13 14 15 16 17 18 19 20 21 22 23 24 25 26 27 28 29 30 31 32 33 34
000
FTUS45 KBOU 300914 AAA
TAFDEN
TAF AMD
KDEN 300914Z 3009/3112 17015G23KT P6SM SCT100
     FM301400 32007KT P6SM FEW100
     FM301800 06010KT P6SM SCT100
     FM302300 08010KT P6SM VCTS SCT080CB BKN120
     FM310200 15010KT P6SM FEW080 BKN120
     FM310800 20011KT P6SM SCT120=

USA.gov is the U.S. government's official web portal to all federal, state and local government web resources and services.